Location: Recife
(8.0585°S, 34.8848°W)
Time: 12:35:24
(UTC-03:00)

Vanguard 2 - Pass Details

Date: 21 April 2026
Orbit: 553 x 2895 km, 32.9° (Epoch: 13 May)

Event Time Altitude Azimuth Distance (km) Brightness Sun altitude
Rises 18:10:40 0° 300° (WNW) 3,986 12.6 -14.4°
Reaches altitude 10° 18:12:57 10° 299° (WNW) 3,265 11.9 -15.0°
Maximum altitude 18:21:33 79° 213° (SSW) 1,831 9.4 -17.1°
Enters shadow 18:32:47 19° 128° (SE) 4,341 10.8 -19.8°
